Date String (YYYY-MM-DD hh:mm:ss) UTC,Instrument flags,Ambient pressure (hPa),Sample flow (lpm),Bypass flow (lpm),Sample temperature (°C),Ambient temperature (°C),ASC tube jacket temperature (°C),LED temperature (°C),Box temperature (°C),Sample RH (%),Span deviation,Mass concentration (μg/m³),Mass concentration (μg/m³),Mass concentration (μg/m³)
DateTimeUTC,F1_M11,P_M11,Q1_M11,Q2_M11,T1_M11,T2_M11,T3_M11,T4_M11,T5_M11,U1_M11,ZSPAN_M11,X2_M11,X0_M11,X1_M11
2022-07-06 15:00:00,,0829.7,5.01,0.00,33.1,29.3,00.0,41.0,33.1,35.0,-000.4,0005.80,0011.99,0004.86
2022-07-06 15:01:00,,0829.8,4.98,0.00,33.2,29.4,00.0,41.0,33.1,34.3,-001.1,0005.85,0012.92,0004.91
2022-07-06 15:02:00,,0829.8,5.00,0.00,33.2,29.4,00.0,41.1,33.1,34.2,-000.8,0005.93,0013.20,0004.95
2022-07-06 15:03:00,,0829.8,5.00,0.00,33.1,29.4,00.0,41.1,33.1,34.7,-000.6,0005.96,0013.19,0004.98
2022-07-06 15:04:00,,0829.8,5.00,0.00,33.1,29.5,00.0,41.1,33.1,34.4,-000.8,0005.96,0012.97,0004.99
2022-07-06 15:05:00,,0829.8,5.00,0.00,33.0,29.5,00.0,41.1,33.1,34.3,-001.1,0005.99,0012.96,0005.01
2022-07-06 15:06:00,,0829.7,5.00,0.00,33.0,29.5,00.0,41.1,33.1,34.6,-001.4,0005.99,0012.74,0005.01
2022-07-06 15:07:00,,0829.7,5.00,0.00,32.9,29.4,00.0,41.1,33.1,34.7,-001.7,0006.06,0012.54,0005.04
2022-07-06 15:08:00,,0829.7,4.99,0.00,32.9,28.6,00.0,41.0,33.1,35.2,-001.9,0006.11,0012.20,0005.07
2022-07-06 15:09:00,,0829.7,5.00,0.00,33.0,28.0,00.0,40.9,33.1,34.1,-001.5,0006.16,0012.30,0005.08
2022-07-06 15:10:00,,0829.6,5.01,0.00,33.0,27.8,00.0,40.9,33.0,33.9,-000.9,0006.15,0012.24,0005.07
2022-07-06 15:11:00,,0829.6,4.98,0.00,32.8,27.8,00.0,40.9,32.8,34.4,-000.4,0006.10,0012.09,0005.05
2022-07-06 15:12:00,,0829.5,5.00,0.00,32.7,27.9,00.0,40.8,32.7,34.8,-000.1,0006.08,0011.18,0005.05
2022-07-06 15:13:00,,0829.6,5.01,0.00,32.7,28.1,00.0,40.8,32.7,34.7,-000.3,0006.01,0010.72,0005.04
2022-07-06 15:14:00,,0829.5,4.99,0.00,32.7,28.2,00.0,40.8,32.8,34.4,-000.9,0005.97,0010.69,0005.01
2022-07-06 15:15:00,,0829.5,4.99,0.00,32.7,28.4,00.0,40.8,32.8,34.4,-000.9,0005.97,0010.84,0004.99
2022-07-06 15:16:00,,0829.5,5.00,0.00,32.6,28.5,00.0,40.8,32.8,35.1,-000.7,0005.94,0011.42,0004.96
2022-07-06 15:17:00,,0829.6,4.99,0.00,32.7,28.6,00.0,40.8,32.9,34.4,0000.1,0005.94,0011.56,0004.94
2022-07-06 15:18:00,,0829.6,5.00,0.00,32.8,28.7,00.0,40.8,32.9,33.9,0000.8,0005.94,0011.93,0004.92
2022-07-06 15:19:00,,0829.5,5.00,0.00,32.8,28.8,00.0,40.8,32.9,34.7,0000.8,0005.90,0011.94,0004.90
2022-07-06 15:20:00,,0829.5,5.00,0.00,32.8,28.9,00.0,40.8,32.9,35.3,0000.6,0005.87,0011.59,0004.88
2022-07-06 15:21:00,,0829.6,5.00,0.00,33.0,29.0,00.0,40.8,33.1,35.7,0000.3,0005.84,0011.49,0004.87
2022-07-06 15:22:00,,0829.5,5.02,0.00,33.3,29.1,00.0,40.8,33.2,34.9,0000.3,0005.78,0011.47,0004.82
2022-07-06 15:23:00,,0829.5,5.00,0.00,33.5,29.1,00.0,40.9,33.2,33.9,0000.5,0005.74,0011.53,0004.76
2022-07-06 15:24:00,,0829.5,5.01,0.00,33.5,29.2,00.0,40.9,33.2,32.7,0000.5,0005.71,0011.48,0004.74
2022-07-06 15:25:00,,0829.6,4.99,0.00,33.6,29.3,00.0,41.0,33.2,32.4,0000.2,0005.66,0011.27,0004.72
2022-07-06 15:26:00,,0829.5,5.00,0.00,33.5,29.3,00.0,41.0,33.2,32.4,0000.4,0005.60,0011.24,0004.72
2022-07-06 15:27:00,,0829.6,5.00,0.00,33.5,29.4,00.0,41.1,33.2,32.6,0000.7,0005.61,0010.66,0004.73
2022-07-06 15:28:00,,0829.5,5.01,0.00,33.4,29.5,00.0,41.1,33.2,33.2,0000.5,0005.57,0010.47,0004.72
2022-07-06 15:29:00,,0829.6,5.00,0.00,33.4,29.5,00.0,41.2,33.2,34.0,0000.3,0005.55,0009.99,0004.71
2022-07-06 15:30:00,,0829.6,4.99,0.00,33.3,29.6,00.0,41.2,33.2,34.0,0000.5,0005.55,0009.96,0004.72
2022-07-06 15:31:00,,0829.6,5.01,0.00,33.3,29.6,00.0,41.3,33.3,33.4,0000.6,0005.57,0009.97,0004.75
2022-07-06 15:32:00,,0829.6,5.00,0.00,33.2,29.5,00.0,41.3,33.3,33.7,0000.7,0005.59,0009.94,0004.78
2022-07-06 15:33:00,,0829.5,5.01,0.00,33.2,28.8,00.0,41.2,33.2,34.1,0000.7,0005.68,0010.21,0004.84
2022-07-06 15:34:00,,0829.6,4.99,0.00,33.1,28.2,00.0,41.1,33.1,34.5,0000.7,0005.75,0010.31,0004.92
2022-07-06 15:35:00,,0829.5,4.99,0.00,33.0,28.0,00.0,41.1,33.0,34.7,0000.8,0005.82,0010.95,0004.97
2022-07-06 15:36:00,,0829.6,5.01,0.00,32.9,28.0,00.0,41.0,33.0,34.4,0001.1,0005.89,0011.32,0005.00
2022-07-06 15:37:00,,0829.5,4.99,0.00,32.8,28.1,00.0,41.0,32.9,34.4,0000.9,0005.95,0011.32,0005.02
2022-07-06 15:38:00,,0829.5,4.99,0.00,32.8,28.2,00.0,41.0,32.9,34.4,0000.5,0005.91,0011.70,0005.03
2022-07-06 15:39:00,,0829.5,5.02,0.00,32.7,28.4,00.0,40.9,32.9,35.9,0000.3,0005.89,0012.32,0005.03
2022-07-06 15:40:00,,0829.5,4.99,0.00,32.9,28.5,00.0,40.9,33.0,34.9,0000.5,0005.84,0012.50,0005.01
2022-07-06 15:41:00,,0829.5,5.01,0.00,33.0,28.7,00.0,40.9,33.1,34.2,0000.1,0005.79,0012.59,0004.96
2022-07-06 15:42:00,,0829.5,5.00,0.00,33.1,28.8,00.0,40.9,33.1,34.4,-000.3,0005.71,0012.43,0004.90
2022-07-06 15:43:00,,0829.5,5.00,0.00,33.1,28.9,00.0,40.9,33.1,33.6,-000.6,0005.69,0012.46,0004.88
2022-07-06 15:44:00,,0829.5,4.99,0.00,33.1,29.0,00.0,40.9,33.1,33.8,-000.6,0005.65,0012.06,0004.86
2022-07-06 15:45:00,,0829.5,5.00,0.00,33.0,29.1,00.0,41.0,33.1,34.3,-000.6,0005.60,0011.91,0004.83
2022-07-06 15:46:00,,0829.5,4.98,0.00,33.0,29.2,00.0,41.0,33.1,34.2,-000.7,0005.51,0011.29,0004.80
2022-07-06 15:47:00,,0829.4,5.01,0.00,33.0,29.3,00.0,41.0,33.1,35.5,-000.3,0005.45,0010.95,0004.78
2022-07-06 15:48:00,,0829.4,5.00,0.00,33.1,29.4,00.0,41.0,33.3,34.7,-000.1,0005.38,0010.82,0004.74
2022-07-06 15:49:00,,0829.4,5.00,0.00,33.3,29.4,00.0,41.0,33.3,34.2,-000.1,0005.39,0010.56,0004.71
2022-07-06 15:50:00,,0829.4,5.00,0.00,33.3,29.5,00.0,41.1,33.3,34.1,-000.0,0005.41,0010.04,0004.69
2022-07-06 15:51:00,,0829.4,5.00,0.00,33.3,29.5,00.0,41.1,33.3,33.4,-000.2,0005.41,0009.70,0004.68
2022-07-06 15:52:00,,0829.4,5.00,0.00,33.3,29.4,00.0,41.1,33.3,33.3,-000.2,0005.48,0009.63,0004.73
2022-07-06 15:53:00,,0829.3,4.99,0.00,33.3,28.8,00.0,41.0,33.2,33.1,0000.4,0005.52,0009.70,0004.76
2022-07-06 15:54:00,,0829.3,5.01,0.00,33.2,28.3,00.0,41.0,33.1,32.8,0000.5,0005.50,0009.66,0004.78
2022-07-06 15:55:00,,0829.3,4.99,0.00,33.1,28.1,00.0,41.0,33.0,33.3,0000.3,0005.53,0009.74,0004.80
2022-07-06 15:56:00,,0829.3,5.01,0.00,32.9,28.2,00.0,41.0,32.9,34.2,0000.1,0005.58,0009.93,0004.82
2022-07-06 15:57:00,,0829.3,4.99,0.00,32.8,28.3,00.0,41.0,32.9,34.0,0000.1,0005.62,0010.48,0004.82
2022-07-06 15:58:00,,0829.3,4.99,0.00,32.6,28.4,00.0,41.0,32.8,34.3,-000.1,0005.68,0011.17,0004.85
2022-07-06 15:59:00,,0829.2,5.00,0.00,32.6,28.6,00.0,40.9,32.9,34.5,-000.3,0005.77,0011.71,0004.88
